| time (UTC) | temp F | wind direction | speed MPH | gust MPH | rain 1hr in | rain 24hr in | rain mn in | humidity % | barometer mb |
| 20260905154525 | 55 | 162 | 0.0 | 2.0 | 0.00 | 0.01 | 0.00 | 90 | 1017.5 |
| 20260905153015 | 55 | 162 | 0.0 | 5.0 | 0.00 | 0.01 | 0.00 | 91 | 1017.5 |
| 20260905151551 | 53 | 159 | 1.0 | 2.0 | 0.00 | 0.01 | 0.00 | 92 | 1017.4 |
| 20260905150029 | 53 | 159 | 0.0 | 2.0 | 0.00 | 0.01 | 0.00 | 92 | 1017.5 |
| 20260905144517 | 52 | 159 | 1.0 | 5.0 | 0.00 | 0.01 | 0.00 | 92 | 1017.3 |
| 20260905143013 | 52 | 159 | 3.0 | 5.0 | 0.00 | 0.01 | 0.00 | 92 | 1017.3 |
| 20260905141523 | 52 | 100 | 0.0 | 2.0 | 0.00 | 0.01 | 0.00 | 93 | 1017.2 |
| 20260905140112 | 52 | 100 | 0.0 | 0.0 | 0.00 | 0.01 | 0.00 | 93 | 1017.1 |
| 20260905140002 | 52 | 100 | 0.0 | 0.0 | 0.00 | 0.01 | 0.00 | 93 | 1017.1 |
| 20260905134545 | 52 | 100 | 0.0 | 0.0 | 0.00 | 0.02 | 0.00 | 92 | 1016.9 |
| 20260905133003 | 52 | 100 | 0.0 | 0.0 | 0.00 | 0.02 | 0.00 | 92 | 1016.8 |
| 20260905131521 | 52 | 100 | 0.0 | 0.0 | 0.00 | 0.02 | 0.00 | 92 | 1016.8 |
| 20260905130037 | 53 | 100 | 0.0 | 1.0 | 0.00 | 0.02 | 0.00 | 92 | 1016.8 |
| 20260905124539 | 52 | 100 | 1.0 | 3.0 | 0.00 | 0.03 | 0.00 | 92 | 1016.7 |
| 20260905123029 | 52 | 100 | 0.0 | 1.0 | 0.00 | 0.03 | 0.00 | 91 | 1016.7 |
| 20260905121517 | 52 | 100 | 1.0 | 3.0 | 0.00 | 0.03 | 0.00 | 92 | 1016.8 |
| 20260905120058 | 51 | 100 | 0.0 | 0.0 | 0.00 | 0.03 | 0.00 | 93 | 1016.8 |
| 20260905120001 | 51 | 100 | 0.0 | 0.0 | 0.00 | 0.03 | 0.00 | 93 | 1016.8 |
| 20260905114546 | 51 | 100 | 0.0 | 1.0 | 0.00 | 0.04 | 0.00 | 92 | 1016.7 |
| 20260905113106 | 51 | 100 | 0.0 | 0.0 | 0.00 | 0.04 | 0.00 | 92 | 1016.6 |
| 20260905113001 | 51 | 99 | 0.0 | 0.0 | 0.00 | 0.04 | 0.00 | 92 | 1016.6 |
| 20260905111537 | 51 | 100 | 0.0 | 2.0 | 0.00 | 0.04 | 0.00 | 93 | 1016.6 |
| 20260905110014 | 51 | 100 | 0.0 | 1.0 | 0.00 | 0.04 | 0.00 | 92 | 1016.5 |
| 20260905104526 | 51 | 100 | 0.0 | 0.0 | 0.00 | 0.04 | 0.00 | 93 | 1016.3 |
| 20260905103013 | 51 | 100 | 0.0 | 1.0 | 0.00 | 0.04 | 0.00 | 92 | 1016.2 |
| 20260905101519 | 52 | 100 | 0.0 | 0.0 | 0.00 | 0.04 | 0.00 | 92 | 1016.2 |
| 20260905100055 | 52 | 100 | 0.0 | 0.0 | 0.00 | 0.04 | 0.00 | 92 | 1016.2 |
| 20260905094533 | 52 | 100 | 0.0 | 0.0 | 0.00 | 0.04 | 0.00 | 91 | 1016.2 |
| 20260905093048 | 53 | 100 | 0.0 | 0.0 | 0.00 | 0.04 | 0.00 | 91 | 1016.2 |
| 20260905091553 | 53 | 100 | 0.0 | 1.0 | 0.00 | 0.04 | 0.00 | 91 | 1016.2 |
| 20260905090049 | 53 | 100 | 0.0 | 2.0 | 0.00 | 0.04 | 0.00 | 90 | 1016.1 |
| 20260905084549 | 53 | 100 | 0.0 | 3.0 | 0.00 | 0.04 | 0.00 | 90 | 1016.0 |
| 20260905083031 | 53 | 100 | 0.0 | 1.0 | 0.00 | 0.04 | 0.00 | 89 | 1016.0 |
| 20260905081544 | 54 | 100 | 0.0 | 0.0 | 0.00 | 0.04 | 0.00 | 88 | 1015.9 |
| 20260905080059 | 54 | 100 | 0.0 | 1.0 | 0.00 | 0.04 | 0.00 | 88 | 1015.8 |
| 20260905074544 | 54 | 100 | 0.0 | 2.0 | 0.00 | 0.06 | 0.00 | 88 | 1015.8 |
| 20260905073049 | 54 | 100 | 1.0 | 2.0 | 0.00 | 0.06 | 0.00 | 88 | 1015.7 |
| 20260905071557 | 54 | 100 | 0.0 | 1.0 | 0.00 | 0.06 | 0.00 | 86 | 1015.7 |
| 20260905070105 | 55 | 100 | 0.0 | 0.0 | 0.00 | 0.06 | 0.00 | 86 | 1015.6 |
| 20260905064511 | 55 | 100 | 0.0 | 0.0 | 0.00 | 0.07 | 0.06 | 85 | 1015.4 |
| 20260905063045 | 56 | 100 | 0.0 | 1.0 | 0.00 | 0.07 | 0.06 | 84 | 1015.3 |
| 20260905061536 | 56 | 100 | 0.0 | 0.0 | 0.00 | 0.07 | 0.06 | 82 | 1015.2 |
| 20260905060009 | 57 | 100 | 0.0 | 0.0 | 0.00 | 0.07 | 0.06 | 81 | 1015.2 |
| 20260905054541 | 57 | 100 | 0.0 | 1.0 | 0.00 | 0.07 | 0.06 | 80 | 1015.1 |
| 20260905053027 | 58 | 100 | 0.0 | 2.0 | 0.00 | 0.07 | 0.06 | 80 | 1015.1 |
| 20260905051522 | 58 | 100 | 0.0 | 2.0 | 0.00 | 0.07 | 0.06 | 79 | 1015.2 |
| 20260905050031 | 58 | 100 | 0.0 | 0.0 | 0.00 | 0.07 | 0.06 | 77 | 1015.1 |
| 20260905044541 | 59 | 100 | 0.0 | 3.0 | 0.00 | 0.07 | 0.06 | 76 | 1015.3 |
| 20260905043003 | 59 | 100 | 0.0 | 2.0 | 0.00 | 0.07 | 0.06 | 75 | 1015.1 |
| 20260905041511 | 60 | 100 | 0.0 | 3.0 | 0.00 | 0.07 | 0.06 | 74 | 1015.2 |
| 20260905040024 | 60 | 91 | 0.0 | 2.0 | 0.00 | 0.07 | 0.06 | 73 | 1015.2 |
| 20260905034505 | 60 | 91 | 1.0 | 4.0 | 0.00 | 0.07 | 0.06 | 72 | 1015.0 |
| 20260905033043 | 60 | 89 | 2.0 | 6.0 | 0.00 | 0.07 | 0.06 | 72 | 1015.0 |
| 20260905031602 | 60 | 95 | 2.0 | 4.0 | 0.00 | 0.07 | 0.06 | 71 | 1014.7 |
| 20260905031500 | 60 | 94 | 2.0 | 4.0 | 0.00 | 0.07 | 0.06 | 71 | 1014.7 |
| 20260905030044 | 61 | 95 | 2.0 | 4.0 | 0.00 | 0.07 | 0.06 | 70 | 1014.7 |
| 20260905024553 | 61 | 95 | 0.0 | 6.0 | 0.00 | 0.11 | 0.06 | 70 | 1014.6 |
| 20260905023039 | 61 | 96 | 2.0 | 4.0 | 0.00 | 0.11 | 0.06 | 70 | 1014.5 |
| 20260905021530 | 62 | 97 | 3.0 | 5.0 | 0.00 | 0.11 | 0.06 | 69 | 1014.7 |
| 20260905020009 | 62 | 87 | 3.0 | 9.0 | 0.00 | 0.11 | 0.06 | 67 | 1014.6 |
| 20260905014547 | 63 | 89 | 6.0 | 10.0 | 0.00 | 0.11 | 0.06 | 65 | 1014.5 |
| 20260905013030 | 65 | 78 | 2.0 | 4.0 | 0.00 | 0.11 | 0.06 | 63 | 1014.3 |
| 20260905011513 | 65 | 97 | 1.0 | 6.0 | 0.00 | 0.11 | 0.06 | 60 | 1014.0 |
| 20260905010028 | 66 | 133 | 1.0 | 6.0 | 0.00 | 0.11 | 0.06 | 60 | 1013.7 |
| 20260905004509 | 65 | 78 | 3.0 | 12.0 | 0.00 | 0.11 | 0.06 | 62 | 1013.7 |
| 20260905003051 | 65 | 80 | 5.0 | 12.0 | 0.00 | 0.11 | 0.06 | 62 | 1013.6 |
| 20260905001533 | 66 | 67 | 3.0 | 11.0 | 0.00 | 0.11 | 0.06 | 59 | 1013.7 |
| 20260905000050 | 67 | 83 | 2.0 | 9.0 | 0.00 | 0.11 | 0.06 | 61 | 1013.6 |
| 20260904234556 | 68 | 83 | 3.0 | 9.0 | 0.00 | 0.11 | 0.06 | 58 | 1013.6 |
| 20260904233012 | 69 | 56 | 3.0 | 6.0 | 0.00 | 0.11 | 0.06 | 53 | 1013.5 |
| 20260904231556 | 70 | 48 | 2.0 | 6.0 | 0.00 | 0.11 | 0.06 | 54 | 1013.5 |
| 20260904230040 | 71 | 25 | 2.0 | 5.0 | 0.00 | 0.11 | 0.06 | 51 | 1013.3 |
| 20260904224557 | 71 | 340 | 2.0 | 5.0 | 0.00 | 0.11 | 0.06 | 52 | 1013.2 |
| 20260904223032 | 70 | 267 | 3.0 | 6.0 | 0.00 | 0.11 | 0.06 | 51 | 1013.2 |
| 20260904221549 | 70 | 341 | 1.0 | 7.0 | 0.00 | 0.11 | 0.06 | 52 | 1013.1 |
| 20260904220024 | 69 | 323 | 2.0 | 8.0 | 0.00 | 0.11 | 0.06 | 57 | 1013.1 |
| 20260904214536 | 68 | 327 | 2.0 | 8.0 | 0.00 | 0.11 | 0.06 | 58 | 1012.9 |
| 20260904213024 | 67 | 13 | 2.0 | 5.0 | 0.00 | 0.11 | 0.06 | 61 | 1012.9 |
| 20260904211600 | 68 | 16 | 2.0 | 5.0 | 0.00 | 0.11 | 0.06 | 60 | 1012.9 |
| 20260904210044 | 68 | 279 | 4.0 | 8.0 | 0.00 | 0.11 | 0.06 | 61 | 1012.9 |
| 20260904204526 | 67 | 25 | 0.0 | 6.0 | 0.00 | 0.11 | 0.06 | 63 | 1012.9 |
| 20260904203013 | 66 | 326 | 3.0 | 6.0 | 0.00 | 0.11 | 0.06 | 65 | 1013.0 |
| 20260904201556 | 67 | 337 | 3.0 | 8.0 | 0.00 | 0.11 | 0.06 | 62 | 1013.1 |
| 20260904200012 | 66 | 350 | 1.0 | 9.0 | 0.00 | 0.11 | 0.06 | 65 | 1013.1 |
| 20260904194529 | 66 | 264 | 3.0 | 6.0 | 0.00 | 0.11 | 0.06 | 67 | 1013.1 |
| 20260904193100 | 64 | 338 | 4.0 | 8.0 | 0.00 | 0.11 | 0.06 | 74 | 1013.1 |
| 20260904193004 | 64 | 13 | 3.0 | 10.0 | 0.00 | 0.11 | 0.06 | 73 | 1013.0 |
| 20260904191542 | 63 | 235 | 2.0 | 6.0 | 0.00 | 0.11 | 0.06 | 78 | 1013.1 |
| 20260904190026 | 62 | 192 | 3.0 | 7.0 | 0.00 | 0.11 | 0.06 | 79 | 1013.1 |
| 20260904184519 | 61 | 182 | 3.0 | 7.0 | 0.00 | 0.11 | 0.06 | 82 | 1013.1 |
| 20260904183056 | 61 | 221 | 3.0 | 6.0 | 0.00 | 0.11 | 0.06 | 78 | 1013.3 |
| 20260904181517 | 62 | 72 | 1.0 | 3.0 | 0.00 | 0.11 | 0.06 | 78 | 1013.3 |
| 20260904180051 | 61 | 45 | 1.0 | 5.0 | 0.00 | 0.11 | 0.06 | 83 | 1013.2 |
| 20260904174553 | 60 | 68 | 1.0 | 4.0 | 0.00 | 0.11 | 0.06 | 87 | 1013.2 |
| 20260904173010 | 58 | 74 | 0.0 | 3.0 | 0.00 | 0.11 | 0.06 | 93 | 1013.3 |
| 20260904171612 | 57 | 74 | 1.0 | 3.0 | 0.00 | 0.11 | 0.06 | 93 | 1013.3 |
| 20260904170028 | 57 | 74 | 0.0 | 2.0 | 0.00 | 0.11 | 0.06 | 95 | 1013.3 |
| 20260904164544 | 56 | 74 | 0.0 | 1.0 | 0.00 | 0.11 | 0.06 | 96 | 1013.2 |
| 20260904163027 | 56 | 74 | 0.0 | 1.0 | 0.00 | 0.11 | 0.06 | 96 | 1013.2 |
| 20260904161544 | 56 | 74 | 0.0 | 3.0 | 0.01 | 0.11 | 0.06 | 97 | 1013.2 |
| 20260904160023 | 55 | 74 | 1.0 | 3.0 | 0.01 | 0.11 | 0.06 | 97 | 1013.0 |